When you browse on this site, cookies collect data to enhance your experience and personalize the content and advertising you see.
Visit our Privacy Policy to learn more. By continuing to use the site, you agree to this use of cookies and data.
  • In Österreich
  • Länderverzeichnis
  • Für 7 Tage
  • Wassertemperatur
  • Satellitenkarten
  • Wetterkarte
  • News
  • Widgets
  • user-avatar
    Anmelden

    Stündliche Wetter Perinovo

    Heute, 23 Juli, Dienstag

    Zeit Temperatur Niederschläge Wind Luftdruck Luftfeuchtigkeit
    00:00 +14°C° 0 mm 3 m/S 750 mmHg 95%
    01:00 +14°C° 0 mm 3 m/S 750 mmHg 95%
    02:00 +13°C° 0 mm 3 m/S 749 mmHg 95%
    03:00 +12°C° 0 mm 3 m/S 749 mmHg 95%
    04:00 +12°C° 0 mm 3 m/S 749 mmHg 96%
    05:00 +11°C° 0 mm 3 m/S 749 mmHg 96%
    06:00 +12°C° 0 mm 4 m/S 749 mmHg 94%
    07:00 +13°C° 0 mm 4 m/S 749 mmHg 92%
    08:00 +14°C° 0 mm 4 m/S 749 mmHg 90%
    09:00 +17°C° 0 mm 4 m/S 749 mmHg 85%
    10:00 +18°C° 0 mm 4 m/S 749 mmHg 80%
    11:00 +19°C° 0 mm 4 m/S 749 mmHg 75%
    12:00 +19°C° 0.5 mm 5 m/S 748 mmHg 76%
    13:00 +20°C° 0.5 mm 5 m/S 748 mmHg 77%
    14:00 +20°C° 0.5 mm 5 m/S 748 mmHg 78%
    15:00 +20°C° 0.4 mm 4 m/S 748 mmHg 80%
    16:00 +20°C° 0.4 mm 4 m/S 748 mmHg 82%
    17:00 +19°C° 0.4 mm 3 m/S 748 mmHg 84%
    18:00 +19°C° 0.4 mm 3 m/S 748 mmHg 86%
    19:00 +18°C° 0.4 mm 3 m/S 748 mmHg 87%
    20:00 +18°C° 0.4 mm 3 m/S 747 mmHg 88%
    21:00 +17°C° 0 mm 3 m/S 747 mmHg 91%
    22:00 +17°C° 0 mm 3 m/S 748 mmHg 93%
    23:00 +16°C° 0 mm 3 m/S 748 mmHg 95%

    Morgen, 24 Juli, Mittwoch

    Zeit Temperatur Niederschläge Wind Luftdruck Luftfeuchtigkeit
    00:00 +16°C° 0 mm 3 m/S 748 mmHg 95%
    01:00 +16°C° 0 mm 3 m/S 748 mmHg 96%
    02:00 +16°C° 0 mm 3 m/S 747 mmHg 96%
    03:00 +14°C° 0 mm 3 m/S 747 mmHg 96%
    04:00 +14°C° 0 mm 3 m/S 747 mmHg 96%
    05:00 +14°C° 0 mm 3 m/S 747 mmHg 96%
    06:00 +15°C° 0 mm 4 m/S 748 mmHg 92%
    07:00 +17°C° 0 mm 4 m/S 748 mmHg 88%
    08:00 +19°C° 0 mm 4 m/S 748 mmHg 85%
    09:00 +20°C° 0 mm 5 m/S 748 mmHg 77%
    10:00 +22°C° 0 mm 5 m/S 748 mmHg 70%
    11:00 +23°C° 0 mm 5 m/S 748 mmHg 62%
    12:00 +25°C° 0 mm 5 m/S 748 mmHg 60%
    13:00 +25°C° 0 mm 5 m/S 748 mmHg 58%
    14:00 +26°C° 0 mm 5 m/S 748 mmHg 56%
    15:00 +26°C° 0 mm 5 m/S 748 mmHg 59%
    16:00 +25°C° 0 mm 4 m/S 748 mmHg 62%
    17:00 +25°C° 0 mm 4 m/S 748 mmHg 64%
    18:00 +22°C° 0 mm 3 m/S 748 mmHg 70%
    19:00 +21°C° 0 mm 3 m/S 748 mmHg 76%
    20:00 +19°C° 0 mm 3 m/S 749 mmHg 82%
    21:00 +18°C° 0 mm 3 m/S 749 mmHg 84%
    22:00 +17°C° 0 mm 2 m/S 749 mmHg 87%
    23:00 +16°C° 0 mm 2 m/S 749 mmHg 89%

    übermorgen, 25 Juli, Donnerstag

    Zeit Temperatur Niederschläge Wind Luftdruck Luftfeuchtigkeit
    00:00 +16°C° 0 mm 2 m/S 749 mmHg 90%
    01:00 +15°C° 0 mm 2 m/S 749 mmHg 91%
    02:00 +15°C° 0 mm 2 m/S 749 mmHg 92%
    03:00 +15°C° 0 mm 2 m/S 749 mmHg 92%
    04:00 +15°C° 0 mm 2 m/S 750 mmHg 92%
    05:00 +14°C° 0 mm 2 m/S 750 mmHg 91%
    06:00 +16°C° 0 mm 3 m/S 750 mmHg 86%
    07:00 +18°C° 0 mm 3 m/S 749 mmHg 81%
    08:00 +20°C° 0 mm 3 m/S 749 mmHg 76%
    09:00 +21°C° 0.4 mm 4 m/S 749 mmHg 73%
    10:00 +22°C° 0.4 mm 4 m/S 749 mmHg 71%
    11:00 +23°C° 0.4 mm 5 m/S 749 mmHg 69%
    12:00 +23°C° 1 mm 5 m/S 749 mmHg 72%
    13:00 +22°C° 1 mm 5 m/S 748 mmHg 75%
    14:00 +22°C° 1 mm 5 m/S 748 mmHg 78%
    15:00 +22°C° 0.8 mm 5 m/S 748 mmHg 79%
    16:00 +22°C° 0.8 mm 4 m/S 748 mmHg 80%
    17:00 +22°C° 0.8 mm 4 m/S 748 mmHg 81%
    18:00 +21°C° 1 mm 4 m/S 748 mmHg 84%
    19:00 +19°C° 1 mm 3 m/S 748 mmHg 87%
    20:00 +18°C° 1 mm 3 m/S 747 mmHg 90%
    21:00 +17°C° 0.1 mm 3 m/S 747 mmHg 92%
    22:00 +16°C° 0.1 mm 3 m/S 747 mmHg 93%
    23:00 +15°C° 0.1 mm 2 m/S 747 mmHg 95%

    26 Juli, Freitag

    Zeit Temperatur Niederschläge Wind Luftdruck Luftfeuchtigkeit
    00:00 +15°C° 0 mm 2 m/S 747 mmHg 95%
    01:00 +14°C° 0 mm 2 m/S 747 mmHg 95%
    02:00 +14°C° 0 mm 2 m/S 747 mmHg 96%
    03:00 +13°C° 0 mm 2 m/S 747 mmHg 96%
    04:00 +13°C° 0 mm 2 m/S 747 mmHg 96%
    05:00 +13°C° 0 mm 2 m/S 747 mmHg 96%
    06:00 +14°C° 0 mm 2 m/S 747 mmHg 93%
    07:00 +16°C° 0 mm 2 m/S 747 mmHg 91%
    08:00 +17°C° 0 mm 2 m/S 747 mmHg 88%
    09:00 +18°C° 0 mm 3 m/S 748 mmHg 84%
    10:00 +19°C° 0 mm 3 m/S 748 mmHg 80%
    11:00 +20°C° 0 mm 3 m/S 748 mmHg 76%
    12:00 +20°C° 0.1 mm 3 m/S 748 mmHg 76%
    13:00 +21°C° 0.1 mm 4 m/S 748 mmHg 76%
    14:00 +21°C° 0.1 mm 4 m/S 748 mmHg 76%
    15:00 +21°C° 0.3 mm 4 m/S 748 mmHg 81%
    16:00 +20°C° 0.3 mm 4 m/S 748 mmHg 85%
    17:00 +19°C° 0.3 mm 4 m/S 748 mmHg 90%
    18:00 +19°C° 0 mm 4 m/S 748 mmHg 92%
    19:00 +18°C° 0 mm 3 m/S 748 mmHg 94%
    20:00 +18°C° 0 mm 2 m/S 748 mmHg 96%
    21:00 +18°C° 0 mm 2 m/S 748 mmHg 96%
    22:00 +18°C° 0 mm 2 m/S 748 mmHg 96%
    23:00 +18°C° 0 mm 2 m/S 748 mmHg 96%

    27 Juli, Samstag

    Zeit Temperatur Niederschläge Wind Luftdruck Luftfeuchtigkeit
    00:00 +18°C° 0 mm 2 m/S 748 mmHg 96%
    01:00 +17°C° 0 mm 2 m/S 748 mmHg 96%
    02:00 +17°C° 0 mm 2 m/S 748 mmHg 96%
    03:00 +17°C° 0 mm 2 m/S 748 mmHg 97%
    04:00 +17°C° 0 mm 2 m/S 748 mmHg 97%
    05:00 +17°C° 0 mm 3 m/S 748 mmHg 97%
    06:00 +18°C° 0 mm 3 m/S 748 mmHg 94%
    07:00 +19°C° 0 mm 3 m/S 748 mmHg 90%
    08:00 +20°C° 0 mm 4 m/S 748 mmHg 87%
    09:00 +22°C° 0 mm 4 m/S 748 mmHg 80%
    10:00 +25°C° 0 mm 5 m/S 749 mmHg 73%
    11:00 +26°C° 0 mm 5 m/S 749 mmHg 66%
    12:00 +27°C° 0.1 mm 5 m/S 748 mmHg 64%
    13:00 +28°C° 0.1 mm 5 m/S 748 mmHg 62%
    14:00 +28°C° 0.1 mm 5 m/S 748 mmHg 60%
    15:00 +28°C° 0.3 mm 5 m/S 748 mmHg 64%
    16:00 +28°C° 0.3 mm 4 m/S 748 mmHg 68%
    17:00 +27°C° 0.3 mm 4 m/S 748 mmHg 72%
    18:00 +26°C° 0 mm 3 m/S 748 mmHg 76%
    19:00 +24°C° 0 mm 3 m/S 748 mmHg 81%
    20:00 +22°C° 0 mm 3 m/S 748 mmHg 86%
    21:00 +21°C° 0 mm 3 m/S 748 mmHg 89%
    22:00 +20°C° 0 mm 3 m/S 748 mmHg 91%
    23:00 +19°C° 0 mm 3 m/S 748 mmHg 93%

    28 Juli, Sonntag

    Zeit Temperatur Niederschläge Wind Luftdruck Luftfeuchtigkeit
    00:00 +19°C° 0 mm 3 m/S 748 mmHg 94%
    01:00 +19°C° 0 mm 3 m/S 748 mmHg 94%
    02:00 +18°C° 0 mm 3 m/S 748 mmHg 94%
    03:00 +18°C° 0 mm 3 m/S 748 mmHg 95%
    04:00 +18°C° 0 mm 3 m/S 748 mmHg 95%
    05:00 +18°C° 0 mm 3 m/S 748 mmHg 96%
    06:00 +19°C° 0 mm 3 m/S 748 mmHg 91%
    07:00 +21°C° 0 mm 3 m/S 748 mmHg 86%
    08:00 +22°C° 0 mm 3 m/S 748 mmHg 81%
    09:00 +25°C° 0 mm 3 m/S 748 mmHg 75%
    10:00 +26°C° 0 mm 4 m/S 748 mmHg 68%
    11:00 +28°C° 0 mm 4 m/S 748 mmHg 62%
    12:00 +28°C° 0 mm 4 m/S 748 mmHg 61%
    13:00 +29°C° 0 mm 4 m/S 747 mmHg 60%
    14:00 +29°C° 0 mm 4 m/S 747 mmHg 58%
    15:00 +29°C° 0 mm 4 m/S 747 mmHg 61%
    16:00 +29°C° 0 mm 4 m/S 747 mmHg 64%
    17:00 +29°C° 0 mm 3 m/S 747 mmHg 66%
    18:00 +27°C° 0.3 mm 3 m/S 747 mmHg 75%
    19:00 +25°C° 0.3 mm 3 m/S 747 mmHg 83%
    20:00 +22°C° 0.3 mm 3 m/S 747 mmHg 92%
    21:00 +21°C° 0 mm 3 m/S 748 mmHg 93%
    22:00 +20°C° 0 mm 3 m/S 748 mmHg 94%
    23:00 +19°C° 0 mm 3 m/S 749 mmHg 94%
    Mehr zeigen